KB2KMM Weather Reports


time (UTC)temp
C
wind
direction
speed
KPH
gust
KPH
rain 1hr
cm
rain 24hr
cm
rain mn
cm
humidity
%
barometer
mb
20260506162505 14 249 11.3 24.1 0.00 0.00 0.00 100 1010.2
20260506162006 14 244 11.3 22.5 0.00 0.00 0.00 100 1010.2
20260506161505 14 234 8.0 22.5 0.00 0.00 0.00 100 1010.4
20260506161006 14 195 4.8 20.9 0.00 0.00 0.00 100 1010.1
20260506160505 14 232 8.0 29.0 0.00 0.00 0.00 99 1010.3
20260506160005 14 209 9.7 29.0 0.00 0.00 0.00 99 1010.4
20260506155505 14 250 4.8 24.1 0.00 0.00 0.00 99 1010.4
20260506155006 15 231 11.3 24.1 0.00 0.00 0.00 99 1010.4
20260506154505 15 229 11.3 25.7 0.00 0.00 0.00 99 1010.5
20260506154005 15 218 14.5 25.7 0.00 0.00 0.00 99 1010.6
20260506153504 15 232 11.3 24.1 0.00 0.00 0.00 99 1010.7
20260506153005 15 220 9.7 24.1 0.00 0.00 0.00 99 1010.7
20260506152504 15 242 9.7 19.3 0.00 0.00 0.00 99 1010.8
20260506152006 15 219 9.7 24.1 0.00 0.00 0.00 99 1010.8
20260506151505 15 242 8.0 24.1 0.00 0.00 0.00 99 1010.7
20260506151005 15 234 9.7 24.1 0.00 0.00 0.00 99 1010.7
20260506150505 15 227 9.7 22.5 0.00 0.00 0.00 99 1010.6
20260506150005 15 186 8.0 24.1 0.00 0.00 0.00 99 1010.5
20260506145505 15 214 8.0 24.1 0.00 0.00 0.00 99 1010.5
20260506145005 15 168 8.0 24.1 0.00 0.00 0.00 99 1010.4
20260506144505 15 245 8.0 25.7 0.00 0.00 0.00 99 1010.5
20260506144006 15 203 4.8 25.7 0.00 0.00 0.00 99 1010.5
20260506143505 15 284 4.8 24.1 0.00 0.00 0.00 99 1010.5
20260506143006 15 200 6.4 24.1 0.00 0.00 0.00 99 1010.8
20260506142505 15 224 9.7 25.7 0.00 0.00 0.00 99 1010.8
20260506142005 15 215 14.5 25.7 0.00 0.00 0.00 99 1011.0
20260506141505 15 219 11.3 25.7 0.00 0.00 0.00 99 1011.0
20260506141006 15 211 6.4 24.1 0.00 0.00 0.00 99 1011.0
20260506140505 15 212 12.9 24.1 0.00 0.00 0.00 99 1010.9
20260506140005 15 223 11.3 29.0 0.00 0.00 0.00 100 1011.0
20260506135505 15 184 8.0 29.0 0.00 0.00 0.00 100 1011.1
20260506135005 15 228 8.0 29.0 0.00 0.00 0.00 100 1011.2
20260506134506 15 218 9.7 27.4 0.00 0.00 0.00 100 1011.3
20260506134005 15 214 6.4 22.5 0.00 0.00 0.00 100 1011.2
20260506133505 15 223 9.7 22.5 0.00 0.00 0.00 100 1011.2
20260506133006 15 228 4.8 27.4 0.00 0.00 0.00 100 1011.1
20260506132505 14 177 6.4 27.4 0.00 0.00 0.00 100 1011.1
20260506132006 14 207 6.4 25.7 0.00 0.00 0.00 100 1011.0
20260506131505 14 225 9.7 25.7 0.00 0.00 0.00 100 1011.1
20260506131006 14 223 6.4 24.1 0.00 0.00 0.00 100 1011.0
20260506130505 14 214 8.0 24.1 0.00 0.00 0.00 100 1011.0
20260506130006 14 358 8.0 22.5 0.00 0.00 0.00 100 1011.0
20260506125506 14 191 4.8 22.5 0.00 0.00 0.00 100 1011.1
20260506125005 14 247 9.7 22.5 0.00 0.00 0.00 100 1011.1
20260506124505 14 266 9.7 20.9 0.00 0.00 0.00 100 1010.9
20260506124006 14 227 8.0 19.3 0.00 0.00 0.00 100 1011.1
20260506123505 14 254 4.8 20.9 0.00 0.00 0.00 100 1011.2
20260506123006 14 223 9.7 20.9 0.00 0.00 0.00 100 1011.2
20260506122505 14 232 8.0 25.7 0.00 0.00 0.00 100 1011.3
20260506122006 14 228 9.7 25.7 0.00 0.00 0.00 100 1011.4
20260506121505 14 185 8.0 25.7 0.00 0.00 0.00 100 1011.5
20260506121006 14 222 6.4 25.7 0.00 0.00 0.00 100 1011.6
20260506120506 14 230 8.0 25.7 0.00 0.00 0.00 100 1011.4
20260506120005 14 220 9.7 24.1 0.00 0.00 0.00 100 1011.4
20260506115505 13 246 9.7 20.9 0.00 0.00 0.00 100 1011.3
20260506115005 13 231 4.8 24.1 0.00 0.00 0.00 100 1011.3
20260506114505 13 235 9.7 24.1 0.00 0.00 0.00 100 1011.2
20260506114005 13 218 8.0 22.5 0.00 0.00 0.00 100 1011.3
20260506113505 13 216 8.0 20.9 0.00 0.00 0.00 100 1011.2
20260506113005 13 194 8.0 22.5 0.00 0.00 0.00 100 1011.1
20260506112505 13 208 8.0 22.5 0.00 0.00 0.00 100 1011.1
20260506112005 13 0 4.8 19.3 0.00 0.00 0.00 100 1011.1
20260506111505 13 0 8.0 19.3 0.00 0.00 0.00 100 1011.3
20260506111005 13 0 6.4 27.4 0.00 0.00 0.00 100 1011.4
20260506110505 13 357 6.4 27.4 0.00 0.00 0.00 100 1011.3
20260506110005 13 0 8.0 27.4 0.00 0.00 0.00 100 1011.3
20260506105505 13 336 6.4 22.5 0.00 0.00 0.00 100 1011.2
20260506105005 12 322 8.0 22.5 0.00 0.00 0.00 100 1011.2
20260506104505 12 341 8.0 19.3 0.00 0.00 0.00 100 1011.1
20260506104006 12 352 9.7 19.3 0.00 0.00 0.00 100 1011.1
20260506103505 12 328 8.0 19.3 0.00 0.00 0.00 100 1011.1
20260506103005 12 329 6.4 19.3 0.00 0.00 0.00 100 1011.1
20260506102505 12 286 4.8 14.5 0.00 0.00 0.00 100 1011.0
20260506102005 12 265 6.4 24.1 0.00 0.00 0.00 100 1011.0
20260506101505 12 249 4.8 24.1 0.00 0.00 0.00 100 1011.1
20260506101005 12 284 8.0 24.1 0.00 0.00 0.00 100 1011.0
20260506100505 12 264 8.0 33.8 0.00 0.00 0.00 100 1011.1
20260506100005 12 252 11.3 33.8 0.00 0.00 0.00 100 1011.1
20260506095505 12 272 9.7 24.1 0.00 0.00 0.00 100 1011.1
20260506095005 12 263 11.3 24.1 0.00 0.00 0.00 100 1011.1
20260506094505 12 274 9.7 19.3 0.00 0.00 0.00 100 1011.1
20260506094005 12 275 9.7 29.0 0.00 0.00 0.00 100 1011.1
20260506093505 12 273 11.3 29.0 0.00 0.00 0.00 100 1011.1
20260506093005 12 261 4.8 19.3 0.00 0.00 0.00 100 1011.0
20260506092505 12 269 8.0 22.5 0.00 0.00 0.00 100 1011.1
20260506092005 12 255 8.0 22.5 0.00 0.00 0.00 100 1011.1
20260506091505 12 278 8.0 22.5 0.00 0.00 0.00 100 1011.0
20260506091006 12 265 8.0 22.5 0.00 0.00 0.00 100 1011.2
20260506090505 12 277 9.7 20.9 0.00 0.00 0.00 100 1011.2
20260506090005 12 271 8.0 22.5 0.00 0.00 0.00 100 1011.2
20260506085505 12 267 8.0 22.5 0.00 0.00 0.00 100 1011.3
20260506085005 12 266 8.0 19.3 0.00 0.00 0.00 100 1011.3
20260506084505 12 279 6.4 19.3 0.00 0.00 0.00 100 1011.3
20260506084005 12 276 4.8 24.1 0.00 0.00 0.00 100 1011.4
20260506083505 12 260 8.0 24.1 0.00 0.00 0.00 100 1011.4
20260506083005 12 250 8.0 24.1 0.00 0.00 0.00 100 1011.4
20260506082505 12 286 6.4 20.9 0.00 0.00 0.00 100 1011.4
20260506082005 13 287 3.2 19.3 0.00 0.00 0.00 100 1011.4
20260506081506 13 280 6.4 14.5 0.00 0.00 0.00 100 1011.4
20260506081005 12 288 8.0 16.1 0.00 0.00 0.00 100 1011.4
20260506080505 13 251 8.0 22.5 0.00 0.00 0.00 100 1011.4
20260506073505 13 286 8.0 20.9 0.00 0.00 0.00 100 1011.6
20260506073006 13 280 8.0 20.9 0.00 0.00 0.00 100 1011.8
20260506072505 13 283 8.0 19.3 0.00 0.00 0.00 100 1011.7
20260506072006 13 282 4.8 19.3 0.00 0.00 0.00 100 1011.8
20260506071505 13 319 4.8 24.1 0.00 0.00 0.00 100 1011.8
20260506071005 13 285 11.3 24.1 0.00 0.00 0.00 100 1011.8
20260506070505 13 293 9.7 22.5 0.00 0.00 0.00 100 1011.7
20260506062505 13 265 9.7 22.5 0.00 0.00 0.00 99 1011.7
20260506062006 13 282 8.0 22.5 0.00 0.00 0.00 99 1011.7
20260506061505 13 258 8.0 19.3 0.00 0.00 0.00 99 1011.6
20260506061005 13 280 9.7 22.5 0.00 0.00 0.00 99 1011.6
20260506060505 13 249 8.0 22.5 0.00 0.00 0.00 99 1011.6
20260506051005 13 292 12.9 27.4 0.00 0.00 0.00 96 1011.8
20260506050505 13 274 6.4 27.4 0.00 0.00 0.00 96 1012.0
20260506045005 13 297 12.9 27.4 0.00 0.00 0.00 96 1012.0
20260506044505 13 280 9.7 25.7 0.00 0.00 0.00 96 1012.0
20260506044005 13 295 9.7 27.4 0.00 0.00 0.00 95 1012.0
20260506043505 14 283 9.7 27.4 0.00 0.00 0.00 95 1011.9
20260506043005 14 301 9.7 25.7 0.00 0.00 0.00 95 1012.0
20260506042505 14 302 11.3 24.1 0.00 0.00 0.00 94 1012.0
20260506042005 14 291 9.7 27.4 0.00 0.00 0.00 94 1011.9
20260506041505 14 295 14.5 32.2 0.00 0.00 0.00 94 1011.9
20260506041005 14 299 14.5 32.2 0.00 0.00 0.00 94 1012.0
20260506040505 14 308 9.7 25.7 0.00 0.00 0.00 93 1012.0
20260506040005 14 288 6.4 25.7 0.00 0.00 0.00 93 1012.1
20260506035506 14 306 8.0 25.7 0.00 0.00 0.00 93 1012.0
20260506035005 14 296 14.5 25.7 0.00 0.00 0.00 93 1011.9
20260506034505 14 261 6.4 33.8 0.00 0.00 0.00 93 1011.9
20260506034006 14 294 14.5 33.8 0.00 0.00 0.00 93 1011.9
20260506033505 14 302 9.7 27.4 0.00 0.00 0.00 93 1012.0
20260506033005 14 303 4.8 24.1 0.00 0.00 0.00 93 1011.9
20260506032504 14 303 8.0 24.1 0.00 0.00 0.00 93 1011.9
20260506032005 14 310 4.8 33.8 0.00 0.00 0.00 93 1011.9
20260506031505 14 288 11.3 33.8 0.00 0.00 0.00 93 1011.9
20260506031006 14 301 8.0 22.5 0.00 0.00 0.00 93 1011.9
20260506030505 14 293 11.3 22.5 0.00 0.00 0.00 93 1012.0
20260506030005 14 302 9.7 22.5 0.00 0.00 0.00 93 1012.0
20260506025505 14 305 4.8 29.0 0.00 0.00 0.00 93 1012.1
20260506025005 14 297 8.0 29.0 0.00 0.00 0.00 93 1012.1
20260506024505 14 304 9.7 29.0 0.00 0.00 0.00 93 1012.0
20260506024005 14 296 8.0 25.7 0.00 0.00 0.00 93 1012.0
20260506023505 14 297 9.7 32.2 0.00 0.00 0.00 92 1012.0
20260506023005 14 304 8.0 32.2 0.00 0.00 0.00 91 1012.1
20260506022505 14 295 6.4 32.2 0.00 0.00 0.00 91 1012.0
20260506022005 14 308 11.3 35.4 0.00 0.00 0.00 91 1012.1
20260506021505 14 312 9.7 35.4 0.00 0.00 0.00 90 1012.0
20260506021005 15 297 11.3 32.2 0.00 0.00 0.00 89 1012.0
20260506020505 15 313 11.3 32.2 0.00 0.00 0.00 89 1012.0
20260506020005 15 322 11.3 25.7 0.00 0.00 0.00 87 1012.1
20260506015505 15 311 9.7 25.7 0.00 0.00 0.00 86 1012.0
20260506015005 15 315 6.4 25.7 0.00 0.00 0.00 86 1011.9
20260506014505 15 313 11.3 25.7 0.00 0.00 0.00 85 1011.8
20260506014005 15 309 9.7 25.7 0.00 0.00 0.00 83 1011.7
20260506013505 15 317 8.0 32.2 0.00 0.00 0.00 82 1011.7
20260506013005 15 325 8.0 32.2 0.00 0.00 0.00 80 1011.7
20260506012505 15 344 12.9 37.0 0.00 0.00 0.00 79 1011.5
20260506012005 15 340 11.3 37.0 0.00 0.00 0.00 79 1011.6
20260506011505 15 342 14.5 33.8 0.00 0.00 0.00 78 1011.5
20260506011005 16 336 14.5 33.8 0.00 0.00 0.00 78 1011.5
20260506010505 16 330 9.7 33.8 0.00 0.00 0.00 78 1011.4
20260506010005 16 337 11.3 33.8 0.00 0.00 0.00 76 1011.2
20260506005505 16 335 9.7 35.4 0.00 0.00 0.00 76 1011.2
20260506005005 16 336 8.0 35.4 0.00 0.00 0.00 76 1011.2
20260506004505 16 340 9.7 32.2 0.00 0.00 0.00 76 1011.1
20260506004006 16 332 9.7 27.4 0.00 0.00 0.00 76 1011.1
20260506003505 16 341 11.3 41.8 0.00 0.00 0.00 76 1011.0
20260506003008 16 352 14.5 41.8 0.00 0.00 0.00 77 1010.9
20260506002505 16 352 17.7 41.8 0.00 0.00 0.00 78 1010.9
20260506002009 16 356 12.9 38.6 0.00 0.00 0.00 78 1010.9
20260506001505 15 358 14.5 45.1 0.00 0.00 0.00 78 1010.7
20260506001008 15 357 11.3 45.1 0.00 0.00 0.00 78 1010.7
20260506000505 15 350 14.5 40.2 0.00 0.00 0.00 79 1010.7
20260506000005 15 347 12.9 38.6 0.00 0.00 0.00 79 1010.6
20260505235505 15 347 8.0 32.2 0.00 0.00 0.00 79 1010.6
20260505235009 15 350 9.7 35.4 0.00 0.00 0.00 79 1010.6
20260505234505 15 349 12.9 35.4 0.00 0.00 0.00 78 1010.5
20260505234009 15 345 11.3 32.2 0.00 0.00 0.00 78 1010.3
20260505233507 15 343 11.3 35.4 0.00 0.00 0.00 77 1010.1
20260505233010 16 335 14.5 35.4 0.00 0.00 0.00 75 1010.1
20260505232505 16 324 8.0 32.2 0.00 0.00 0.00 74 1010.1
20260505232009 16 324 14.5 32.2 0.00 0.00 0.00 73 1010.0
20260505231505 16 315 11.3 35.4 0.00 0.00 0.00 71 1010.0
20260505231008 16 210 16.1 35.4 0.00 0.00 0.00 70 1009.9
20260505230505 17 216 14.5 27.4 0.00 0.00 0.00 69 1009.8
20260505230005 17 213 9.7 38.6 0.00 0.00 0.00 68 1009.8
20260505225505 17 213 12.9 38.6 0.00 0.00 0.00 68 1009.9
20260505225009 17 230 11.3 38.6 0.00 0.00 0.00 68 1009.8
20260505224505 17 208 11.3 32.2 0.00 0.00 0.00 67 1009.7
20260505224009 17 221 16.1 32.2 0.00 0.00 0.00 66 1009.7
20260505223505 17 204 11.3 32.2 0.00 0.00 0.00 66 1009.6
20260505223010 17 185 11.3 32.2 0.00 0.00 0.00 65 1009.6
20260505222504 17 217 14.5 35.4 0.00 0.00 0.00 64 1009.6
20260505222008 17 215 12.9 45.1 0.00 0.00 0.00 63 1009.6
20260505221505 18 208 11.3 45.1 0.00 0.00 0.00 61 1009.5
20260505221008 18 177 9.7 29.0 0.00 0.00 0.00 63 1009.6
20260505220505 18 216 9.7 32.2 0.00 0.00 0.00 63 1009.5
20260505220004 18 231 14.5 32.2 0.00 0.00 0.00 61 1009.6
20260505215506 18 218 9.7 37.0 0.00 0.00 0.00 61 1009.5
20260505215010 18 187 8.0 37.0 0.00 0.00 0.00 61 1009.6
20260505214505 18 212 16.1 33.8 0.00 0.00 0.00 60 1009.5
20260505214009 18 212 6.4 29.0 0.00 0.00 0.00 60 1009.4
20260505213505 18 187 9.7 32.2 0.00 0.00 0.00 59 1009.3
20260505213009 18 213 14.5 32.2 0.00 0.00 0.00 58 1009.3
20260505212505 18 217 11.3 29.0 0.00 0.00 0.00 59 1009.2
20260505212008 18 214 8.0 24.1 0.00 0.00 0.00 60 1009.1
20260505211507 18 202 11.3 32.2 0.00 0.00 0.00 60 1009.2
20260505211008 18 219 12.9 33.8 0.00 0.00 0.00 59 1009.1
20260505210505 18 233 14.5 33.8 0.00 0.00 0.00 59 1009.0
20260505210006 18 195 9.7 27.4 0.00 0.00 0.00 58 1009.2
20260505205506 19 211 9.7 32.2 0.00 0.00 0.00 57 1009.1
20260505205010 19 214 11.3 32.2 0.00 0.00 0.00 57 1009.2
20260505204505 19 201 6.4 27.4 0.00 0.00 0.00 59 1009.2
20260505204012 18 238 9.7 27.4 0.00 0.00 0.00 60 1009.2
20260505203504 18 219 9.7 20.9 0.00 0.00 0.00 59 1009.2
20260505203009 18 192 8.0 20.9 0.00 0.00 0.00 60 1009.3
20260505202505 18 217 8.0 29.0 0.00 0.00 0.00 59 1009.3
20260505202010 19 189 9.7 29.0 0.00 0.00 0.00 58 1009.3
20260505201505 19 222 8.0 22.5 0.00 0.00 0.00 59 1009.5
20260505201008 19 227 8.0 25.7 0.00 0.00 0.00 56 1009.6
20260505200505 20 204 11.3 25.7 0.00 0.00 0.00 55 1009.6
20260505200005 20 189 8.0 19.3 0.00 0.00 0.00 55 1009.6
20260505195505 20 159 3.2 19.3 0.00 0.00 0.00 56 1009.8
20260505195009 20 190 8.0 19.3 0.00 0.00 0.00 56 1009.8
20260505194505 20 209 6.4 27.4 0.00 0.00 0.00 56 1009.8
20260505194009 20 238 9.7 27.4 0.00 0.00 0.00 55 1009.8
20260505193505 20 228 6.4 27.4 0.00 0.00 0.00 56 1010.0
20260505193010 20 234 12.9 27.4 0.00 0.00 0.00 54 1009.9
20260505192505 20 195 3.2 19.3 0.00 0.00 0.00 59 1010.1
20260505192009 20 231 4.8 19.3 0.00 0.00 0.00 60 1010.3
20260505191505 19 199 4.8 19.3 0.00 0.00 0.00 61 1010.2
20260505191008 19 241 4.8 32.2 0.00 0.00 0.00 63 1010.3
20260505190505 18 219 9.7 32.2 0.00 0.00 0.00 61 1010.5
20260505190005 19 228 9.7 24.1 0.00 0.00 0.00 61 1010.6
20260505185504 19 242 14.5 24.1 0.00 0.00 0.00 60 1010.7
20260505185010 19 253 8.0 24.1 0.00 0.00 0.00 61 1010.7
20260505184505 19 183 12.9 24.1 0.00 0.00 0.00 60 1010.8
20260505184009 20 210 8.0 22.5 0.00 0.00 0.00 60 1010.9
20260505183505 19 234 8.0 22.5 0.00 0.00 0.00 61 1011.0
20260505183010 19 213 4.8 22.5 0.00 0.00 0.00 63 1010.8
20260505182505 19 228 8.0 22.5 0.00 0.00 0.00 64 1010.9
20260505182009 19 258 6.4 19.3 0.00 0.00 0.00 65 1011.0
20260505181505 18 247 4.8 20.9 0.00 0.00 0.00 65 1011.0
20260505181008 18 247 9.7 25.7 0.00 0.00 0.00 64 1011.0
20260505180505 18 247 9.7 25.7 0.00 0.00 0.00 65 1011.1
20260505180005 18 242 6.4 20.9 0.00 0.00 0.00 65 1011.2
20260505175505 18 239 4.8 20.9 0.00 0.00 0.00 66 1011.2
20260505175009 18 214 8.0 22.5 0.00 0.00 0.00 68 1011.1
20260505174505 18 233 6.4 22.5 0.00 0.00 0.00 68 1011.3
20260505174009 18 225 8.0 22.5 0.00 0.00 0.00 68 1011.2
20260505173505 18 213 8.0 22.5 0.00 0.00 0.00 69 1011.1
20260505173009 18 217 9.7 20.9 0.00 0.00 0.00 69 1011.3
20260505172505 18 220 6.4 19.3 0.00 0.00 0.00 70 1011.2
20260505172009 18 217 8.0 22.5 0.00 0.00 0.00 70 1011.4
20260505171506 18 180 8.0 22.5 0.00 0.00 0.00 72 1011.4
20260505171008 18 221 3.2 16.1 0.00 0.00 0.00 73 1011.4
20260505170505 17 194 3.2 22.5 0.00 0.00 0.00 73 1011.4
20260505170005 17 199 4.8 22.5 0.00 0.00 0.00 73 1011.4
20260505165505 17 240 9.7 20.9 0.00 0.00 0.00 72 1011.4
20260505165009 18 219 9.7 20.9 0.00 0.00 0.00 71 1011.4
20260505164505 18 203 8.0 14.5 0.00 0.00 0.00 72 1011.5
20260505164009 18 210 6.4 16.1 0.00 0.00 0.00 72 1011.5
20260505163505 18 225 8.0 19.3 0.00 0.00 0.00 71 1011.5
20260505163009 18 233 9.7 19.3 0.00 0.00 0.00 71 1011.7